(117410) = 2002 JL142 = 2005 AY11

Discovered at Catalina on 2005-01-06 by CSS.

Orbit

Orbit type: Main Belt

Note: WebGL enabled browser required.

epoch2023-09-13.0
epoch JD2460200.5
perihelion date2020-06-29.11220
perihelion JD2459029.61220
argument of perihelion (°)0.91539
ascending node (°)46.21598
inclination (°)5.28544
eccentricity0.1626516
perihelion distance (AU)2.1145504
Tisserand w.r.t. Jupiter3.4
ΔV w.r.t. Earth (km/sec)9.3
semimajor axis (AU)2.5252933
mean anomaly (°)287.57516
mean daily motion (°/day)0.24560440
aphelion distance (AU)2.936
period (years)4.01
P-vector [x]0.68036877
P-vector [y]0.67180827
P-vector [z]0.29286855
Q-vector [x]-0.72984621
Q-vector [y]0.58484466
Q-vector [z]0.35395091
absolute magnitude16.16
phase slope0.15
uncertainty0
referenceMPO 777549
observations used684
oppositions18
arc length (days)8332
first opposition used2001
last opposition used2023
residual rms (arc-secs)0.71
perturbers coarse indicatorM-v
perturbers precise indicator003Ek
first observation date used2001-01-18.0
last observation date used2023-11-11.0
computer nameMPCLINUX
JD of orbit computation2456819.651144
perihelion JD uncertainty (days)7.9635E-05
argument of perihelion uncertainty (°)4.6638E-05
ascending node uncertainty (°)4.3889E-05
inclination uncertainty (°)3.8159E-06
eccentricity uncertainty 5.9284E-08
perihelion distance uncertainty (AU)1.5063E-07
Minimum Orbit Intersection Distances (in AU)
for orbit epoch: 2460200.5, reference: E2023-VL1
Mercury1.79633
Venus1.39215
Earth1.12328
Mars0.61751
Jupiter2.44609
Saturn6.73076
Uranus15.6818
Neptune27.6539

Observations

699 total observations over interval: 2001 01 18.31035 – 2023 11 11.099234
These data are available for download (format description).

Date (UT) J2000 RA J2000 Dec Magn Location Ref
2001 01 18.31035 08 38 37.85 +27 29 53.4 18.8   704 – Lincoln Laboratory ETS, New Mexico MPS 125481
2001 01 18.32577 08 38 36.83 +27 29 57.0 19.0   704 – Lincoln Laboratory ETS, New Mexico MPS 125481
2001 01 18.34124 08 38 35.75 +27 30 02.3 18.8   704 – Lincoln Laboratory ETS, New Mexico MPS 125481
2001 01 18.35677 08 38 34.77 +27 30 06.2 19.2   704 – Lincoln Laboratory ETS, New Mexico MPS 125481
2001 01 18.37222 08 38 33.80 +27 30 11.5 19.2   704 – Lincoln Laboratory ETS, New Mexico MPS 125481
2001 02 12.16674 08 13 16.91 +28 41 03.0 18.6 R 699 – Lowell Observatory-LONEOS MPS 125481
2001 02 12.18436 08 13 16.09 +28 41 03.6   699 – Lowell Observatory-LONEOS MPS 125481
2001 02 12.20145 08 13 15.21 +28 41 03.6   699 – Lowell Observatory-LONEOS MPS 125481
2001 02 12.21841 08 13 14.38 +28 41 05.2   699 – Lowell Observatory-LONEOS MPS 125481
2002 04 09.33845 14 56 41.19 -15 32 30.1 21.4 V 291 – LPL/Spacewatch II MPS 125481
2002 04 09.35906 14 56 40.26 -15 32 27.8 21.3 V 291 – LPL/Spacewatch II MPS 125481
2002 04 09.39742 14 56 38.45 -15 32 23.6 20.6 V 291 – LPL/Spacewatch II MPS 125481
2002 05 11.25693 14 28 03.60 -14 08 33.1 19.8   704 – Lincoln Laboratory ETS, New Mexico MPS 57796
2002 05 11.27155 14 28 02.84 -14 08 30.2 20.1   704 – Lincoln Laboratory ETS, New Mexico MPS 57796
2002 05 11.28619 14 28 01.93 -14 08 27.4 19.7   704 – Lincoln Laboratory ETS, New Mexico MPS 57796
2002 05 14.24336 14 25 22.19 -14 00 13.1 20.7 V 291 – LPL/Spacewatch II MPS 57796
2002 05 14.26793 14 25 20.85 -14 00 08.8 20.9 V 291 – LPL/Spacewatch II MPS 57796
2002 05 14.28882 14 25 19.71 -14 00 05.3 20.7 V 291 – LPL/Spacewatch II MPS 57796
2003 07 08.36391 21 43 10.64 -22 18 55.5 19.8   644 – Palomar Mountain/NEAT MPS 125481
2003 07 08.38554 21 43 10.14 -22 19 01.6 19.2   644 – Palomar Mountain/NEAT MPS 125481
2003 07 08.40674 21 43 09.61 -22 19 08.0 19.1   644 – Palomar Mountain/NEAT MPS 125481
2004 12 15.33510 08 51 18.49 +25 16 18.1 19.3   704 – Lincoln Laboratory ETS, New Mexico MPS 124167
2004 12 15.34845 08 51 18.33 +25 16 22.6 19.8   704 – Lincoln Laboratory ETS, New Mexico MPS 124167
2004 12 15.38043 08 51 17.92 +25 16 31.9 19.8   704 – Lincoln Laboratory ETS, New Mexico MPS 124167
2004 12 22.24698 08 48 54.77 +25 49 31.7 18.9 R 699 – Lowell Observatory-LONEOS MPS 124167
2004 12 22.26567 08 48 54.16 +25 49 36.8   699 – Lowell Observatory-LONEOS MPS 124167
2004 12 22.28437 08 48 53.56 +25 49 43.3   699 – Lowell Observatory-LONEOS MPS 124167
2004 12 22.30305 08 48 53.10 +25 49 47.7   699 – Lowell Observatory-LONEOS MPS 124167
2005 01 06.33681 08 38 15.99 +27 11 01.2 18.6 R 703 – Catalina Sky Survey MPS 124167
2005 01 06.34325 08 38 15.61 +27 11 02.9 18.7 R 703 – Catalina Sky Survey MPS 124167
2005 01 06.34971 08 38 15.23 +27 11 04.5 18.6 R 703 – Catalina Sky Survey MPS 124167
2005 01 06.35617 08 38 14.87 +27 11 06.8 18.4 R 703 – Catalina Sky Survey MPS 124167
2005 01 07.33657 08 37 20.44 +27 16 23.0 19.4   704 – Lincoln Laboratory ETS, New Mexico MPS 124167
2005 01 07.36321 08 37 18.81 +27 16 33.8 20.0   704 – Lincoln Laboratory ETS, New Mexico MPS 124167
2005 01 07.37655 08 37 17.96 +27 16 37.4 19.7   704 – Lincoln Laboratory ETS, New Mexico MPS 124167
2005 01 07.38989 08 37 17.18 +27 16 41.4 19.6   704 – Lincoln Laboratory ETS, New Mexico MPS 124167
2005 01 16.34438 08 28 09.80 +28 01 50.9 19.4   704 – Lincoln Laboratory ETS, New Mexico MPS 124802
2005 01 16.35747 08 28 08.88 +28 01 54.8 19.8   704 – Lincoln Laboratory ETS, New Mexico MPS 124802
2005 01 16.37049 08 28 08.02 +28 01 57.7 20.3   704 – Lincoln Laboratory ETS, New Mexico MPS 124802
2005 01 16.38400 08 28 07.03 +28 02 02.3 20.1   704 – Lincoln Laboratory ETS, New Mexico MPS 124802
2005 01 16.39703 08 28 06.37 +28 02 05.2 20.2   704 – Lincoln Laboratory ETS, New Mexico MPS 124802
2005 01 19.34489 08 24 54.15 +28 15 10.8 19.1   704 – Lincoln Laboratory ETS, New Mexico MPS 124802
2005 01 19.35885 08 24 53.23 +28 15 14.7 18.9   704 – Lincoln Laboratory ETS, New Mexico MPS 124802
2005 01 19.37234 08 24 52.27 +28 15 17.8 19.0   704 – Lincoln Laboratory ETS, New Mexico MPS 124802
2005 01 19.38609 08 24 51.33 +28 15 20.7 19.0   704 – Lincoln Laboratory ETS, New Mexico MPS 124802
2005 01 19.40075 08 24 50.32 +28 15 24.4 19.4   704 – Lincoln Laboratory ETS, New Mexico MPS 124802
2005 01 20.18988 08 23 58.88 +28 18 41.8 18.4 R 699 – Lowell Observatory-LONEOS MPS 124802
2005 01 20.20779 08 23 57.75 +28 18 44.2   699 – Lowell Observatory-LONEOS MPS 124802
2005 01 20.22568 08 23 56.51 +28 18 50.2   699 – Lowell Observatory-LONEOS MPS 124802
2005 01 20.24358 08 23 55.34 +28 18 54.7   699 – Lowell Observatory-LONEOS MPS 124802
2005 02 03.14196 08 09 09.24 +29 00 39.4 18.8 R 699 – Lowell Observatory-LONEOS MPS 126795
2005 02 03.16241 08 09 07.99 +29 00 40.8   699 – Lowell Observatory-LONEOS MPS 126795
2005 02 03.18280 08 09 06.74 +29 00 44.3   699 – Lowell Observatory-LONEOS MPS 126795
2005 02 03.20885 08 09 05.14 +29 00 47.4   699 – Lowell Observatory-LONEOS MPS 126795
2005 02 03.29591 08 08 59.90 +29 00 57.7 19.3   704 – Lincoln Laboratory ETS, New Mexico MPS 125757
2005 02 03.31347 08 08 58.81 +29 00 58.9 19.5   704 – Lincoln Laboratory ETS, New Mexico MPS 125757
2005 02 03.32599 08 08 58.07 +29 01 00.1 19.7   704 – Lincoln Laboratory ETS, New Mexico MPS 125757
2005 02 03.33844 08 08 57.28 +29 01 01.3 19.1   704 – Lincoln Laboratory ETS, New Mexico MPS 125757
2005 02 03.35149 08 08 56.52 +29 01 02.5 19.4   704 – Lincoln Laboratory ETS, New Mexico MPS 125757
2005 02 04.27217 08 08 03.36 +29 02 37.8 18.9 R 699 – Lowell Observatory-LONEOS MPS 126795
2005 02 04.27298 08 08 03.32 +29 02 37.2 18.9 R 699 – Lowell Observatory-LONEOS MPS 126795
2005 02 04.29657 08 08 01.84 +29 02 39.3   699 – Lowell Observatory-LONEOS MPS 126795
2005 02 04.29739 08 08 01.77 +29 02 39.1   699 – Lowell Observatory-LONEOS MPS 126795
2005 02 04.32102 08 08 00.52 +29 02 42.6   699 – Lowell Observatory-LONEOS MPS 126795
2005 02 04.32183 08 08 00.49 +29 02 42.2   699 – Lowell Observatory-LONEOS MPS 126795
2005 02 04.34550 08 07 58.88 +29 02 44.1   699 – Lowell Observatory-LONEOS MPS 126795
2005 02 04.34631 08 07 58.86 +29 02 43.7   699 – Lowell Observatory-LONEOS MPS 126795
2005 02 14.22930 07 59 42.55 +29 10 13.4 19.5   704 – Lincoln Laboratory ETS, New Mexico MPS 126795
2005 02 14.25414 07 59 41.35 +29 10 14.3 20.0   704 – Lincoln Laboratory ETS, New Mexico MPS 126795
2005 02 14.26692 07 59 40.83 +29 10 13.0 19.7   704 – Lincoln Laboratory ETS, New Mexico MPS 126795
2005 02 14.27924 07 59 40.29 +29 10 12.6 19.9   704 – Lincoln Laboratory ETS, New Mexico MPS 126795
2006 04 02.40462 14 55 21.85 -15 09 18.6 20.5 V 691 – Steward Observatory, Kitt Peak-Spacewatch MPS 168729
2006 04 02.42190 14 55 21.20 -15 09 17.0 20.6 V 691 – Steward Observatory, Kitt Peak-Spacewatch MPS 168729
2006 04 02.43726 14 55 20.62 -15 09 15.2 20.8 V 691 – Steward Observatory, Kitt Peak-Spacewatch MPS 168729
2006 04 06.38612 14 52 46.76 -15 02 35.6 21.1 V 691 – Steward Observatory, Kitt Peak-Spacewatch MPS 168729
2006 04 06.40339 14 52 46.10 -15 02 34.8 20.9 V 691 – Steward Observatory, Kitt Peak-Spacewatch MPS 168729
2006 04 06.42065 14 52 45.25 -15 02 31.8 21.2 V 691 – Steward Observatory, Kitt Peak-Spacewatch MPS 168729
2006 05 26.227146 14 10 01.182 -12 52 33.35 20.89 V 645 – Apache Point-Sloan Digital Sky Survey MPS 389881
2006 05 26.230618 14 10 01.038 -12 52 33.03 21.82   645 – Apache Point-Sloan Digital Sky Survey MPS 389881
2006 05 26.28272 14 09 58.89 -12 52 27.3 20.5 V G96 – Mt. Lemmon Survey MPS 173530
2006 05 26.28724 14 09 58.71 -12 52 26.8 20.5 V G96 – Mt. Lemmon Survey MPS 173530
2006 05 26.29181 14 09 58.50 -12 52 26.0 20.3 V G96 – Mt. Lemmon Survey MPS 173530
2006 05 26.29646 14 09 58.32 -12 52 25.8 20.6 V G96 – Mt. Lemmon Survey MPS 173530
2006 05 27.21883 14 09 22.09 -12 50 42.9   291 – LPL/Spacewatch II MPS 173530
2006 05 27.22323 14 09 21.93 -12 50 42.2   291 – LPL/Spacewatch II MPS 173530
2006 05 27.22715 14 09 21.78 -12 50 42.1   291 – LPL/Spacewatch II MPS 173530
2007 07 20.73606 21 24 37.04 -24 15 46.7 20.6 R D35 – Lulin Observatory MPS 212391
2007 07 20.74501 21 24 36.62 -24 15 49.6 20.2 R D35 – Lulin Observatory MPS 212391
